Location: Newark
(51.2625°N, 13.3939°E)
Time: 02:35:13
(UTC+00:00)

Transit 2A Rocket - Pass Details

Date: 22 November 2019
Orbit: 594 x 909 km, 66.7° (Epoch: 09 December)

Event Time Altitude Azimuth Distance (km) Brightness Sun altitude
Exits shadow 05:51:43 - 293° (WNW) 2,091 6.6 -6.7°
Reaches altitude 10° 05:52:12 10° 288° (WNW) 1,964 6.5 -6.7°
Maximum altitude 05:54:55 16° 250° (WSW) 1,617 6.3 -6.3°
Drops below altitude 10° 05:57:42 10° 212° (SSW) 2,023 7.1 -5.9°
Sets 06:00:47 0° 191° (S) 2,980 8.3 -5.5°
